30.06.2024;15:00;0
30.06.2024;14:00;1
30.06.2024;13:00;0
30.06.2024;12:00;1
30.06.2024;11:00;1
30.06.2024;10:00;2
30.06.2024;09:00;3
30.06.2024;08:00;4
30.06.2024;07:00;6
30.06.2024;06:00;11
30.06.2024;05:00;7
30.06.2024;04:00;7
30.06.2024;03:00;9
30.06.2024;02:00;10
30.06.2024;01:00;9
30.06.2024;00:00;9
29.06.2024;23:00;11
29.06.2024;22:00;15
29.06.2024;21:00;14
29.06.2024;20:00;12
29.06.2024;19:00;11
29.06.2024;18:00;11
29.06.2024;17:00;14
29.06.2024;16:00;16
29.06.2024;15:00;17
29.06.2024;14:00;17
29.06.2024;13:00;14
29.06.2024;12:00;11
29.06.2024;11:00;9
29.06.2024;10:00;8
29.06.2024;09:00;9
29.06.2024;08:00;12
29.06.2024;07:00;12
29.06.2024;06:00;10
29.06.2024;05:00;9
29.06.2024;04:00;11
29.06.2024;03:00;17
29.06.2024;02:00;19
29.06.2024;01:00;19
29.06.2024;00:00;18
28.06.2024;23:00;12
28.06.2024;22:00;11
28.06.2024;21:00;13
28.06.2024;20:00;16
28.06.2024;19:00;14
28.06.2024;18:00;12
28.06.2024;17:00;9
28.06.2024;16:00;22
